Location: Neuvy Saint Sepulchre
(46.5953°N, 1.8122°E)
Time: 19:16:01
(UTC+01:00)

ISS - Pass Details

Date: 28 November 2019
Orbit: 411 x 421 km, 51.6° (Epoch: 15 December)

Event Time Altitude Azimuth Distance (km) Brightness Sun altitude
Rises 19:59:02 0° 283° (WNW) 2,361 1.2 -28.6°
Reaches altitude 10° 20:01:16 10° 294° (WNW) 1,500 -0.2 -29.0°
Enters shadow 20:01:56 14° 299° (WNW) 1,263 -0.7 -29.1°
